sat.trackr.live / text

‹ back to catalog

STARLINK-36368

NORAD 67887 · 2026-035J

PAYLOAD ACTIVE UNKNOWN

§ Identity

Operator
Country
US
Launch date
2026-02-21
Launch site
AFWTR
Launch vehicle
Mass (kg)
RCS (m²)

Purposes: comms

External: N2YO · Heavens-Above · Gunter

§ Orbital elements

Epoch: 2026-05-25T01:28:23.988864Z

Period
93.91 min
Inclination
97.2857°
Eccentricity
0.0001966
Mean motion
15.33461804 rev/d
Perigee alt
464.1 km
Apogee alt
466.8 km
Semi-major
6,843.6 km
B*
5.7975e-4
RAAN
78.6119°
Arg perigee
95.8044°
Mean anomaly
264.3423°
Rev number
1,569

§ Raw data

STARLINK-363681 67887U 26035J   26145.06138876  .00018698  00000+0  57975-3 0  99962 67887  97.2857  78.6119 0001966  95.8044 264.3423 15.33461804 15690

JSON: /api/v1/satellites/67887 · /tle

For live sub-satellite position, see the globe view (requires WebGL).

§ Visibility from observer

Set your observer location to see the next 7 days of passes ≥ 10°. The values pass through the URL so the page stays shareable.

No JS? Fill the form by hand. The geolocation button needs JavaScript.